Theta_e
348 350 353 354 355 355 354 354 354 353 352 351 350 350 349 351 356 360 361 359 354 353 354 353 353 354 352 350 349 349 349 351 352 353 352 352 352 351 351 350 348 347 346 344 343 338 331 330 334 337 338 338 338 340 341 342 343 343 343 344 344 344 345 345 344 344 343 342 342 342 342 342 342 341
349 351 354 356 356 354 355 354 354 353 352 351 351 353 352 351 353 356 359 359 354 353 354 354 354 354 352 351 351 350 351 351 352 354 353 352 354 354 354 354 353 351 349 347 345 344 340 334 332 334 337 338 338 340 340 341 342 343 343 343 343 344 344 344 344 343 343 342 342 342 342 342 341 341
348 350 353 355 355 354 354 354 354 354 353 352 353 354 354 353 353 353 355 358 356 353 354 354 353 353 352 351 352 352 352 351 352 354 355 354 353 353 353 353 354 354 352 350 347 345 345 342 337 335 335 336 337 338 340 341 341 341 342 343 343 343 343 343 343 343 342 341 341 341 341 341 340 340
348 349 352 354 354 353 352 352 352 353 354 354 355 355 353 353 354 353 353 356 356 353 353 353 352 352 352 352 352 352 353 352 352 353 354 354 353 352 352 351 352 355 354 352 350 347 346 346 344 341 338 336 335 335 337 339 340 340 341 342 343 342 343 342 343 343 342 342 342 341 341 340 340 340
348 349 352 354 354 353 352 352 351 352 354 355 355 354 352 352 353 354 353 355 356 354 353 353 353 352 353 353 352 352 352 352 352 352 352 353 352 352 352 351 352 355 355 353 351 349 348 347 346 345 344 342 339 337 337 337 336 337 337 339 340 340 340 340 341 341 341 340 340 339 338 337 336 335
347 349 352 354 355 354 354 353 352 352 353 355 355 354 353 353 352 353 354 354 354 353 353 353 353 353 353 352 352 352 352 351 351 352 352 352 352 352 351 352 354 356 355 354 352 351 349 348 348 348 347 346 344 343 341 340 338 336 335 335 335 335 335 335 336 337 337 337 336 336 335 335 334 333
347 348 350 353 354 354 355 354 353 353 353 354 355 354 353 353 353 354 354 353 353 353 353 354 353 353 352 352 352 352 351 351 351 351 352 352 352 351 351 353 355 355 354 353 353 352 350 349 349 349 348 348 347 346 345 345 344 343 341 340 339 338 337 338 338 339 340 340 340 340 340 339 339 339
347 348 349 352 354 354 355 354 353 354 354 353 354 354 354 354 354 355 355 354 353 354 354 354 353 352 351 351 351 350 350 349 349 350 353 353 353 353 353 353 352 352 352 351 352 353 352 351 350 349 349 349 349 349 348 347 347 347 347 346 345 345 344 344 344 344 344 344 345 345 345 344 344 344
347 348 348 350 353 355 355 355 354 354 354 353 353 354 355 355 356 355 354 353 354 355 355 354 352 351 351 350 350 349 349 348 349 351 353 353 354 353 352 351 350 350 350 351 351 352 352 351 350 348 348 348 349 349 349 349 348 348 348 348 348 348 348 347 347 346 346 345 346 346 346 346 346 346
347 347 347 349 353 354 354 355 355 354 353 352 352 354 355 357 356 354 353 354 355 356 354 353 352 351 350 350 349 349 348 348 348 350 351 351 351 351 351 350 350 349 349 349 349 348 348 349 349 348 346 346 346 347 347 347 347 346 346 347 347 347 347 347 347 347 346 346 346 346 345 345 346 346
346 346 346 348 352 353 353 354 354 353 352 352 353 355 357 357 356 353 353 355 355 355 353 352 351 350 348 349 349 349 348 348 348 349 350 351 349 349 350 349 348 348 348 347 346 344 344 344 344 344 344 343 342 343 343 343 343 343 343 344 344 345 345 345 345 344 344 344 344 344 343 343 343 343
344 345 345 347 351 353 353 354 354 353 351 352 354 356 357 357 355 353 354 355 354 353 352 350 349 348 348 348 347 348 348 348 349 349 349 350 349 349 350 347 345 345 345 344 342 340 341 341 340 340 340 338 337 337 337 337 337 338 338 339 339 340 340 340 341 341 340 340 340 340 340 340 339 339
344 344 345 347 351 353 353 353 355 353 351 351 353 356 357 356 355 355 354 353 352 351 351 350 350 349 349 349 348 348 348 348 349 349 349 349 348 348 348 345 342 343 343 341 337 335 336 337 336 335 335 333 332 332 332 332 332 333 333 334 334 334 334 335 335 335 334 334 334 334 335 335 335 334
345 345 346 349 351 352 353 354 354 353 351 351 353 356 357 356 355 355 354 353 352 351 350 350 350 350 350 349 348 348 348 348 348 348 348 347 347 346 345 341 337 337 338 337 332 328 330 332 331 330 330 329 329 330 330 331 331 331 331 331 331 331 331 331 331 331 331 331 331 331 331 332 332 332
345 346 346 350 352 353 354 354 353 353 353 354 356 356 356 355 354 354 353 353 351 350 350 349 350 350 349 348 348 348 348 348 348 348 348 346 345 344 342 339 336 333 332 332 328 325 327 329 328 327 327 327 328 328 329 329 329 329 328 328 328 328 329 329 329 329 329 329 330 329 330 329 329 329
346 346 347 350 352 353 354 353 354 356 356 356 356 356 355 354 354 353 352 352 351 349 349 349 348 348 348 347 348 348 347 347 347 348 347 347 345 343 341 338 334 331 330 330 327 324 324 325 324 324 324 324 325 325 325 325 325 325 325 325 325 326 326 326 326 326 326 326 327 326 326 326 325 325
346 347 348 351 351 352 353 353 354 356 356 356 355 354 353 352 351 351 350 349 348 347 347 347 346 345 346 346 346 345 345 345 345 346 345 344 343 341 338 335 332 330 329 328 325 323 324 323 322 322 322 321 322 323 323 324 324 324 324 324 324 324 324 323 323 323 322 322 322 322 321 321 321 320
346 347 349 350 350 351 353 353 354 356 355 354 353 352 351 350 349 348 346 345 344 343 344 344 344 343 343 343 342 342 342 342 343 343 342 340 339 338 336 334 330 328 327 325 324 324 324 322 321 322 322 321 322 323 323 323 323 323 323 323 323 323 322 322 321 321 320 320 320 319 319 318 318 318
346 347 348 350 350 351 352 352 354 356 355 353 351 349 348 346 344 342 341 341 340 340 341 341 341 340 340 340 340 341 342 342 341 341 340 338 338 337 335 333 330 328 327 326 325 324 323 322 322 323 323 323 323 323 322 321 321 320 321 322 322 322 322 322 321 321 321 320 320 319 319 318 318 318
347 347 348 350 351 350 351 352 354 355 354 352 349 347 344 341 339 337 336 337 337 336 336 337 337 338 339 340 342 342 343 341 340 339 338 337 336 335 334 333 331 330 328 326 324 323 323 323 323 323 324 323 323 322 321 320 319 318 318 318 319 320 320 320 320 320 319 319 320 319 319 319 318 318
348 349 349 349 351 350 349 351 354 355 353 351 348 344 340 336 335 334 332 333 334 334 334 335 337 339 341 342 343 342 340 339 338 339 338 336 336 335 332 332 332 330 327 325 323 323 324 324 324 324 324 323 323 322 321 320 319 317 316 315 315 315 316 316 315 315 315 315 316 317 318 318 318 318
349 350 350 350 351 351 349 350 354 354 352 349 347 342 337 334 333 331 331 332 332 333 334 336 337 339 341 342 341 338 337 336 337 338 337 336 336 334 332 331 331 329 328 326 325 325 326 325 324 323 323 323 322 322 321 320 319 317 314 314 314 313 313 313 312 312 311 311 312 312 313 313 314 314
350 349 349 349 349 350 350 350 353 353 351 349 345 341 338 334 331 330 330 331 331 332 334 336 337 337 338 339 337 335 335 335 336 337 336 336 336 334 332 331 331 329 329 327 326 326 326 326 325 324 324 324 323 322 321 319 317 316 314 313 313 313 313 313 312 312 311 310 310 310 310 310 310 310
349 348 349 349 348 348 349 350 352 352 351 347 342 340 339 335 330 329 328 328 329 331 332 333 333 333 333 334 334 334 334 334 334 335 335 335 336 334 332 331 330 329 329 328 327 327 327 328 328 326 325 325 323 320 320 320 318 315 314 314 314 314 314 314 312 311 311 311 310 310 310 310 310 310
348 347 348 348 348 348 349 351 351 351 349 345 341 339 340 336 330 328 326 325 327 328 328 328 328 328 328 328 328 328 329 328 329 330 330 331 332 332 331 331 329 328 328 329 329 329 329 329 329 327 325 324 320 317 317 320 320 317 314 314 314 314 314 314 312 311 311 311 310 310 310 310 310 309
348 348 348 347 347 348 349 351 352 349 345 342 340 337 335 331 328 326 323 323 324 324 324 324 323 322 321 321 321 322 322 323 323 324 325 325 326 326 326 328 328 328 329 330 330 330 330 329 328 326 323 320 317 315 315 318 320 319 316 313 313 313 313 313 312 311 311 310 310 310 310 310 309 309
347 345 344 344 346 348 349 349 350 348 343 339 337 334 330 327 325 323 321 321 322 322 322 321 320 319 317 317 317 318 319 319 319 320 320 321 321 321 322 322 323 324 327 329 330 331 330 328 326 325 323 319 316 317 316 316 318 321 319 315 312 312 313 312 311 311 310 310 309 309 309 309 308 308
341 338 337 339 341 344 343 339 337 339 340 337 333 329 326 324 323 322 322 322 322 322 322 321 320 318 317 316 316 315 316 316 316 317 317 318 318 318 319 319 319 319 321 324 327 329 330 328 326 324 322 319 316 316 316 315 316 318 319 317 314 312 313 313 312 310 310 310 309 309 308 307 306 306
331 330 329 330 331 333 334 331 327 327 329 330 328 325 324 323 322 321 321 321 322 322 322 322 320 317 315 314 313 313 313 313 313 314 314 315 316 317 317 318 318 318 318 319 322 326 328 327 325 324 322 320 316 315 314 313 312 313 316 317 316 316 316 316 314 311 310 310 309 308 307 306 306 306
327 326 325 325 325 325 326 326 324 323 323 324 324 324 324 323 322 320 321 322 323 324 323 321 319 316 314 312 312 311 312 312 311 312 312 313 314 315 315 317 317 316 317 317 319 322 324 325 325 323 319 315 313 311 310 309 308 308 309 311 313 315 317 317 315 312 310 309 308 306 305 305 305 306
325 325 325 324 324 324 324 323 322 322 322 322 323 323 323 322 322 323 323 324 325 325 323 320 318 315 313 312 312 312 312 312 311 312 312 312 313 314 315 315 314 314 315 317 318 320 320 320 320 317 313 309 308 307 307 306 306 306 306 307 309 313 315 316 314 312 309 307 307 305 304 305 305 305
322 323 323 321 320 320 320 318 318 318 317 317 318 319 320 321 322 322 322 323 324 324 323 320 317 315 314 313 313 313 313 312 312 312 312 311 312 313 314 314 312 310 311 313 314 315 315 313 312 311 310 308 307 305 305 305 305 305 306 307 308 311 311 311 311 309 306 304 305 304 304 304 304 305
320 320 320 319 318 318 317 317 316 315 313 313 313 313 315 317 319 320 320 320 321 322 323 320 317 316 315 314 314 314 313 311 311 311 311 310 311 313 314 312 311 310 309 309 309 310 310 310 309 308 308 307 306 306 305 305 305 305 306 306 306 306 306 306 306 305 303 302 303 303 304 304 304 304
319 319 319 318 318 318 318 318 318 317 316 315 314 314 314 316 318 318 318 318 318 320 321 321 318 317 315 315 314 313 312 310 310 310 310 310 311 313 313 312 311 310 309 308 308 308 308 308 307 306 306 305 305 305 305 305 305 305 305 305 305 304 304 303 303 303 302 302 302 302 303 303 303 303
317 318 318 318 318 318 318 319 319 319 318 317 317 317 316 316 317 317 316 316 316 317 318 318 317 317 315 314 313 312 311 310 309 309 309 309 310 312 312 312 311 311 309 308 308 307 307 308 307 306 306 306 305 305 304 304 305 305 305 305 305 304 304 303 303 303 303 302 302 302 303 304 303 302
317 317 317 317 317 317 317 318 318 318 318 318 317 317 316 316 316 315 315 315 315 315 315 315 315 315 314 313 312 310 310 309 309 308 308 308 309 310 310 310 311 311 311 310 309 308 308 309 309 308 308 308 308 307 306 304 304 304 304 304 304 304 304 304 304 303 303 302 302 303 304 305 304 302
316 316 316 316 316 316 316 316 316 316 316 316 317 317 316 315 314 313 313 314 314 314 313 313 313 313 313 312 311 310 309 309 308 308 307 307 307 308 308 308 308 309 310 309 309 309 309 309 309 309 309 310 309 307 306 305 304 304 304 303 303 304 304 304 304 304 304 304 303 302 303 304 303 302
315 315 315 315 315 315 315 315 315 315 315 315 315 316 315 315 313 313 313 313 313 313 312 312 312 312 312 311 310 309 309 308 308 307 307 307 307 306 307 307 307 307 307 307 308 309 309 309 310 309 308 309 309 308 307 305 304 304 304 303 303 303 303 303 303 304 304 304 304 303 303 303 303 302
314 314 314 314 314 314 314 313 314 314 314 314 315 315 314 314 313 313 313 312 312 311 311 311 311 311 311 311 310 309 308 308 307 307 306 306 306 306 306 306 306 306 306 306 306 307 307 308 309 309 308 308 308 307 306 304 303 302 302 302 303 302 302 302 302 303 303 303 303 303 303 303 303 302
314 314 314 314 313 313 313 313 313 313 313 313 314 313 313 313 313 312 312 311 311 311 310 310 310 310 310 310 310 309 308 307 307 307 306 306 306 306 306 306 306 306 306 305 305 305 305 306 308 309 309 308 306 305 304 303 302 301 301 302 302 302 302 302 302 302 302 302 302 303 304 303 302 301
314 313 313 313 313 313 313 313 312 312 312 312 312 312 312 312 312 312 311 311 310 310 310 309 309 309 308 308 308 308 307 307 306 306 306 306 306 306 306 306 305 305 305 305 304 305 305 305 306 307 308 307 305 304 304 304 303 302 301 301 301 301 301 301 301 301 301 301 301 302 302 302 301 301
313 313 313 313 313 312 312 312 312 312 311 311 311 311 311 311 311 311 310 310 310 310 309 309 309 308 308 307 307 307 306 306 305 305 305 305 305 305 305 305 305 304 304 304 304 304 304 304 304 305 306 306 305 305 305 304 303 302 301 300 300 301 301 301 301 300 301 300 300 301 302 301 301 302
312 312 311 310 310 309 309 310 310 311 311 311 311 310 310 310 310 310 310 309 309 309 309 308 308 308 307 307 307 306 306 305 305 304 304 304 304 304 304 304 304 304 303 303 303 303 303 303 303 303 304 305 305 305 304 303 302 302 301 300 300 300 300 300 301 300 301 301 300 301 301 301 302 302
311 310 310 309 309 308 308 308 308 309 309 309 310 310 310 309 309 309 309 309 308 308 308 307 307 307 306 306 306 306 305 305 304 304 303 303 303 303 303 303 303 303 303 302 302 302 302 302 302 302 303 303 303 303 303 303 303 302 301 300 300 300 300 300 300 301 301 301 301 301 301 301 301 301
311 311 310 310 309 309 309 308 308 308 308 308 308 309 309 309 309 308 308 308 308 308 308 307 307 306 306 306 305 305 305 304 304 303 303 303 302 302 302 302 302 303 302 302 302 302 302 302 302 302 302 302 302 302 303 303 302 302 302 301 301 301 300 300 300 301 301 301 301 300 300 301 301 301
Wind_Speed
15 14 13 12 12 11 11 11 11 11 9 8 8 8 6 4 2 1 1 1 1 1 3 2 2 6 8 6 4 3 1 2 4 5 6 5 4 4 4 4 4 4 4 4 4 4 5 6 6 7 6 5 6 7 7 8 9 10 10 10 11 11 11 12 13 13 12 13 13 13 14 14 14 14
16 15 13 12 12 12 12 12 12 11 9 7 6 6 7 6 5 4 2 2 2 2 2 3 4 7 8 7 4 2 2 1 3 4 6 5 4 4 4 5 5 6 6 5 5 5 5 6 7 8 8 7 7 7 8 9 9 10 10 10 10 10 10 11 11 11 11 12 12 12 13 13 13 14
16 15 14 13 13 12 13 13 13 12 10 8 7 7 8 8 8 7 4 2 2 3 4 5 6 7 8 8 4 2 2 2 2 4 5 5 5 4 3 4 5 7 7 7 7 7 7 7 7 7 8 9 9 9 9 10 11 11 11 10 10 10 10 11 11 12 12 12 12 13 13 14 14 14
17 16 15 14 13 12 13 13 13 13 12 10 9 8 9 8 7 7 7 4 4 6 6 6 6 7 8 7 5 3 3 2 1 3 5 5 5 6 6 6 6 7 8 8 8 9 8 8 7 7 7 8 9 10 11 11 11 11 12 12 12 13 13 13 14 15 14 14 14 15 15 15 16 16
17 16 16 15 14 13 13 13 14 14 13 12 11 9 7 6 6 6 7 6 5 7 6 6 7 7 7 7 6 5 4 4 3 3 4 5 6 7 9 9 7 5 7 8 9 10 10 9 8 8 7 8 9 10 11 12 12 13 13 13 14 15 16 16 17 18 17 17 17 17 17 17 17 17
18 18 17 16 15 14 15 15 14 13 13 13 12 9 7 6 6 5 6 5 4 5 6 6 6 7 7 7 7 6 5 5 5 4 4 5 6 7 8 8 5 2 5 9 10 10 10 10 11 10 9 9 10 11 11 12 13 13 14 14 15 15 16 16 17 17 17 17 17 17 17 17 17 16
20 19 19 17 16 15 16 16 15 13 13 13 11 10 9 8 7 6 6 6 5 4 4 4 5 7 7 7 6 6 6 6 6 6 6 6 7 7 7 7 4 2 5 9 11 9 9 10 12 12 10 10 11 12 13 13 13 13 13 13 14 14 15 15 15 15 14 14 14 14 14 14 13 14
21 20 20 18 17 16 17 16 15 14 13 13 12 11 10 9 8 8 8 9 7 5 4 4 5 7 7 7 7 7 7 6 6 6 6 6 6 6 6 5 4 3 4 7 9 9 9 11 12 11 11 12 14 15 15 16 16 16 15 15 15 15 16 17 17 18 19 18 16 16 17 16 16 16
22 21 20 19 17 17 16 15 14 13 13 14 13 11 9 8 9 9 9 9 8 8 7 7 7 8 8 8 8 8 7 6 5 4 4 4 4 5 4 2 2 3 3 4 6 6 7 7 7 7 10 13 17 19 19 19 19 20 20 19 19 20 21 21 22 23 24 23 23 23 23 23 22 23
23 22 21 19 18 17 17 16 14 13 13 13 13 11 9 8 8 8 8 7 8 8 8 7 8 9 11 10 9 8 8 8 5 3 3 3 3 3 1 2 1 1 1 1 2 2 1 1 1 2 3 5 8 10 11 12 13 14 14 14 14 15 16 17 17 18 18 18 19 22 23 23 23 24
24 23 22 20 19 18 17 16 15 14 13 13 13 11 9 9 8 7 7 7 7 7 6 6 8 9 9 9 8 8 9 8 5 3 3 2 1 2 3 4 4 5 6 6 7 8 8 7 7 7 7 8 7 6 5 3 2 2 2 2 3 4 6 7 8 9 9 8 8 10 12 12 13 14
24 24 23 21 21 19 18 16 15 14 13 13 13 12 10 9 8 8 7 7 6 6 6 7 8 9 8 8 8 8 8 6 4 2 3 1 3 5 5 5 7 9 11 13 15 15 15 15 15 15 16 16 16 16 14 12 11 11 10 10 8 7 6 5 5 4 5 6 6 6 6 5 5 4
24 23 22 21 21 19 18 16 15 14 13 13 14 13 12 11 9 8 8 7 7 7 8 9 9 9 8 8 9 9 7 5 3 3 3 1 4 7 8 8 9 12 15 18 21 21 20 19 19 19 20 20 19 19 18 17 15 14 14 13 13 12 12 11 10 10 10 11 10 9 8 8 7 7
24 23 22 22 21 19 18 16 15 14 13 13 13 13 12 11 10 9 8 8 8 8 9 9 9 8 8 9 10 10 8 6 5 5 4 2 6 8 10 12 12 15 19 23 25 25 23 23 23 24 25 24 23 23 22 20 18 18 18 17 17 16 16 15 15 14 14 14 13 13 12 11 11 10
26 25 24 23 22 20 18 16 14 13 11 11 12 11 10 9 9 9 9 10 10 9 9 9 8 8 8 10 11 9 7 6 5 4 3 3 6 7 9 10 11 15 21 27 29 27 25 26 28 29 29 27 27 25 24 22 21 21 22 21 21 21 20 20 19 19 19 18 17 17 17 16 16 15
28 26 25 24 23 22 19 16 14 12 11 10 10 9 9 8 8 9 9 9 9 9 9 9 9 9 8 8 8 6 6 6 5 4 3 5 8 6 8 10 12 15 21 29 32 28 25 29 32 32 30 29 28 27 25 24 24 24 24 24 23 24 23 23 23 22 22 21 21 20 19 18 18 18
29 28 27 25 24 24 20 16 16 16 13 10 9 10 10 9 9 9 9 8 8 7 8 8 9 9 8 8 6 4 5 6 6 5 3 5 9 9 13 16 17 17 22 30 33 27 24 28 32 32 29 28 28 27 25 25 25 24 24 24 24 24 24 24 24 24 23 22 21 21 20 19 19 20
30 29 28 27 27 25 21 19 19 19 16 14 14 13 12 10 9 7 6 6 5 5 5 5 6 6 6 6 4 4 5 5 5 3 3 9 12 15 19 20 20 19 22 29 31 23 18 24 29 27 25 26 27 26 24 24 24 24 24 24 23 23 23 23 23 23 23 23 22 21 21 20 20 21
31 30 30 30 29 26 23 22 22 22 20 19 18 15 11 9 8 5 4 3 2 2 3 3 4 4 3 3 2 1 1 2 2 5 12 17 20 23 22 21 20 18 17 21 25 20 16 21 27 23 20 24 25 24 24 24 24 24 24 24 23 23 23 23 23 23 23 23 22 22 22 22 21 21
32 32 31 30 30 27 24 24 24 24 22 21 20 16 13 12 10 8 6 5 3 2 2 2 3 3 2 2 4 4 4 7 11 18 22 23 25 26 21 17 17 14 11 17 27 27 19 19 24 22 19 20 22 22 23 23 23 24 24 24 24 23 23 23 23 24 23 23 22 21 21 21 21 22
34 34 33 32 31 28 26 26 26 25 24 24 23 19 17 15 13 12 10 7 5 4 4 5 6 6 6 7 9 9 10 14 18 21 22 21 24 25 18 12 14 16 16 20 27 28 22 19 24 23 19 19 19 18 18 20 21 23 23 23 23 23 23 24 24 24 23 23 22 21 20 20 21 22
30 30 31 31 31 30 29 28 28 27 26 27 26 24 22 19 16 14 13 11 9 8 9 10 10 10 10 11 12 14 16 18 17 18 19 19 21 22 17 14 17 17 17 19 22 24 22 21 24 24 21 20 18 16 14 15 17 19 21 21 21 21 22 22 22 22 22 22 23 22 21 21 22 22
30 31 31 29 29 30 30 30 31 31 31 30 29 26 24 21 19 17 15 14 14 14 14 14 14 14 14 14 15 15 16 15 13 14 17 17 19 21 19 19 18 13 11 16 21 22 21 20 19 18 15 13 13 14 15 15 15 17 18 19 19 18 19 19 20 20 20 21 21 21 21 21 21 22
30 31 32 32 31 31 32 33 34 34 33 32 30 29 26 23 22 21 19 18 18 18 19 19 19 19 18 17 16 14 13 12 11 12 14 14 17 22 22 19 16 12 11 17 21 22 20 17 14 12 10 9 10 11 14 14 14 15 16 17 17 16 16 16 17 18 18 18 19 19 19 19 20 20
26 29 32 32 32 32 32 33 33 34 34 32 30 28 26 26 26 25 24 23 22 23 25 24 24 24 23 22 21 19 18 18 16 15 15 15 16 20 21 19 18 17 16 18 19 20 18 16 15 15 15 14 13 13 13 13 13 13 13 14 15 15 14 15 16 16 16 17 17 17 17 18 18 18
28 31 30 26 26 28 30 31 33 35 34 33 32 29 27 28 30 29 28 27 26 26 27 27 28 28 27 27 26 25 25 23 22 21 20 19 19 19 18 18 18 17 15 16 17 16 16 17 18 20 21 20 16 14 14 13 12 11 11 12 13 13 13 14 14 15 15 15 16 16 16 16 16 17
26 25 23 19 19 23 29 32 35 38 37 34 33 34 34 35 34 34 33 31 29 27 27 28 28 27 28 29 28 27 27 25 24 24 22 21 20 20 19 18 17 15 13 14 14 12 14 19 20 19 23 24 18 12 11 10 11 11 11 11 11 11 12 13 14 15 15 15 16 15 15 15 16 16
16 13 12 13 14 20 28 27 22 28 39 43 42 41 42 41 40 38 36 32 29 28 27 27 26 25 26 28 28 27 26 25 24 24 22 21 20 20 19 18 18 16 13 11 10 10 13 19 21 19 21 23 19 14 11 10 12 12 11 10 9 10 11 12 13 14 14 14 14 13 14 15 15 14
5 6 7 5 7 15 25 24 14 7 14 31 42 45 46 46 44 40 35 30 28 28 26 25 25 25 26 27 26 25 24 24 23 23 22 21 19 18 19 18 18 17 15 14 12 11 12 16 20 19 19 20 19 17 15 13 12 12 11 10 10 9 9 10 12 12 12 12 12 13 14 14 14 13
16 19 22 24 24 23 23 29 33 30 25 24 25 26 29 34 39 39 36 31 29 28 27 26 26 26 26 26 25 24 23 23 23 21 21 20 19 17 17 19 19 17 16 15 14 13 13 15 17 19 19 20 19 18 17 16 14 11 9 9 9 7 7 8 10 10 10 11 12 13 13 13 13 13
28 29 31 33 35 34 32 35 40 39 33 30 31 27 22 22 27 33 34 31 29 28 27 27 27 26 25 24 23 23 22 22 21 19 18 18 18 17 18 20 20 19 18 17 17 16 17 18 19 20 21 22 21 20 18 18 17 14 11 10 10 9 9 9 9 9 9 10 11 12 11 11 12 13
34 36 37 37 37 37 37 38 40 41 39 36 31 25 20 18 20 24 26 27 27 27 27 27 26 24 23 23 22 21 21 20 19 16 15 16 16 16 18 20 21 21 21 21 21 21 22 21 21 20 20 21 21 20 19 19 17 16 14 13 13 13 11 10 9 9 8 8 10 10 10 10 11 11
34 35 36 35 35 35 35 36 36 38 39 35 30 25 22 17 16 19 23 25 25 24 24 25 24 23 22 21 21 20 20 19 18 16 16 16 16 18 20 22 22 23 24 24 23 24 23 22 22 21 20 20 18 17 18 18 16 14 13 13 13 13 11 9 9 8 8 8 9 9 8 7 8 9
35 34 32 29 28 30 30 28 29 31 33 32 28 25 22 20 19 20 22 23 24 23 23 23 23 21 21 20 20 20 20 20 19 18 18 18 19 20 22 23 22 22 24 23 23 23 23 22 22 22 21 20 19 16 16 17 16 13 12 11 11 11 10 8 7 7 7 7 8 8 7 6 5 6
32 30 28 25 24 26 27 27 27 28 29 29 28 25 23 22 22 22 23 23 24 23 23 23 22 21 20 20 20 20 21 20 20 20 19 19 19 20 21 21 20 20 21 21 21 21 21 21 21 20 19 18 18 16 14 14 14 12 11 10 9 9 8 7 6 5 5 5 6 6 5 5 4 4
29 26 26 24 23 24 25 25 25 26 27 27 26 25 24 22 22 23 24 23 23 23 23 22 21 20 20 20 21 21 21 21 22 21 20 20 20 20 20 20 19 18 18 18 17 17 18 16 15 15 14 11 10 10 9 10 10 10 10 10 8 7 6 5 4 4 3 4 4 4 4 3 3 4
27 25 25 24 23 24 24 23 23 23 23 23 23 23 23 22 22 23 23 22 22 22 21 20 19 19 18 20 21 21 21 21 21 21 20 20 20 20 20 19 18 17 16 15 13 13 12 10 10 11 11 8 5 5 7 9 9 8 8 8 8 7 6 5 4 4 3 2 1 1 3 3 3 5
27 25 25 24 23 23 22 21 21 21 21 22 22 22 23 23 23 22 22 21 21 21 19 19 19 18 18 19 20 21 21 20 20 20 19 18 18 18 18 18 17 16 15 15 13 11 10 8 7 9 10 8 5 4 6 8 9 9 8 8 8 8 8 7 8 7 6 4 3 3 1 1 3 6
26 26 25 24 23 23 23 22 22 22 21 21 21 22 22 22 22 22 21 21 21 20 20 20 19 18 17 17 18 19 19 19 19 18 18 17 16 16 16 15 15 15 14 14 13 12 11 11 9 7 9 9 8 8 10 11 10 10 9 8 8 8 8 7 7 7 6 5 6 5 2 0 1 4
26 26 26 25 24 23 23 22 21 21 20 20 20 20 20 21 21 21 20 20 20 19 19 19 18 17 17 16 17 17 18 17 17 16 16 16 15 14 14 14 14 14 13 13 12 11 11 10 10 8 8 10 10 12 14 15 13 12 11 9 8 7 7 6 6 5 5 5 5 5 5 4 3 6
26 26 25 24 23 22 22 21 20 20 19 19 18 19 19 19 19 19 19 19 18 18 17 17 16 16 16 16 15 16 17 17 16 15 14 14 13 13 12 13 13 13 13 12 11 10 10 9 9 8 9 11 13 12 11 11 10 9 10 10 8 7 6 6 5 5 5 5 5 6 6 6 6 7
25 25 24 22 22 21 20 19 18 18 18 17 17 17 17 18 18 18 17 17 17 17 17 16 15 15 15 14 13 14 15 15 14 13 12 11 10 10 10 11 12 13 13 12 12 11 10 9 9 8 9 10 11 9 8 7 7 8 9 9 7 6 5 5 5 6 6 6 6 6 6 5 5 6
24 24 23 22 21 20 20 19 17 16 15 15 15 15 16 16 16 16 16 16 16 16 16 16 15 14 14 13 12 12 13 13 12 11 10 9 8 8 8 9 11 13 13 14 13 12 11 10 9 8 7 7 8 8 9 9 8 8 7 7 6 5 5 4 4 5 6 7 7 7 7 6 5 5
23 22 21 20 20 19 19 18 17 16 14 13 13 12 13 14 14 13 13 14 14 14 14 15 14 14 13 13 12 12 12 11 10 9 9 8 7 7 7 8 10 12 13 14 13 12 11 9 7 6 6 7 9 10 10 8 7 7 7 6 5 5 5 4 3 3 5 7 7 7 8 7 6 5
20 19 19 18 17 17 17 16 16 15 14 12 11 10 10 10 10 11 11 11 11 12 12 12 13 13 13 12 12 11 11 10 8 7 7 6 5 5 5 6 8 10 12 13 13 12 11 9 8 7 9 10 11 10 9 8 6 6 5 5 5 6 5 4 3 3 3 5 6 6 7 7 6 5
Wind_Direction
292 290 284 285 292 304 314 316 317 315 309 299 295 291 274 246 236 298 303 311 267 278 0 0 325 345 350 345 332 329 305 241 221 226 229 218 215 230 237 241 236 231 242 239 224 226 222 211 201 201 216 224 211 209 219 227 228 226 224 223 225 227 226 229 231 232 237 240 240 241 240 241 243 243
287 287 284 285 290 297 301 303 312 313 304 300 303 301 287 258 233 223 242 292 270 268 338 345 322 331 342 346 337 329 335 276 207 214 221 213 215 232 243 253 249 236 240 246 238 232 229 225 216 208 212 217 212 209 216 223 225 226 228 228 231 234 234 236 239 240 244 244 241 241 240 241 242 245
283 286 285 285 287 292 293 293 301 304 298 293 295 297 293 277 255 238 223 231 273 278 312 327 329 336 343 349 347 333 347 350 197 198 202 205 212 228 255 274 266 249 242 246 242 234 231 232 228 222 219 218 217 216 219 223 224 225 228 230 235 239 242 246 249 251 251 250 249 248 247 246 247 250
282 286 283 283 285 289 291 290 292 294 291 286 285 291 291 284 272 252 226 218 269 288 306 325 331 338 345 349 348 333 335 344 282 204 200 209 227 250 273 290 288 260 242 245 244 235 232 234 235 234 231 230 229 225 226 229 229 229 230 233 235 235 237 242 247 251 253 254 256 256 255 256 256 258
280 283 281 280 282 285 288 291 289 287 284 283 282 282 283 282 280 258 230 226 268 295 311 327 330 337 347 347 343 336 330 323 308 270 234 235 251 267 275 284 290 261 232 241 246 240 239 240 240 243 241 244 246 241 238 238 237 237 235 234 235 234 234 236 241 247 250 253 257 259 261 262 263 263
277 279 278 278 280 282 285 288 288 282 279 280 277 272 275 283 282 260 240 237 253 285 306 320 326 332 339 339 340 343 338 328 318 301 283 276 276 281 282 280 287 258 223 237 240 236 239 241 241 244 246 250 254 254 252 250 249 249 247 244 244 243 242 241 242 247 251 255 258 261 262 263 264 265
275 276 276 277 280 281 283 285 285 282 279 276 269 265 275 286 282 275 277 270 258 267 290 306 317 325 332 338 341 342 339 332 326 317 309 300 291 285 279 270 267 240 226 235 235 230 234 239 237 237 242 252 257 259 260 259 259 258 256 255 254 252 252 250 248 247 248 251 255 258 258 257 259 263
273 274 274 277 281 281 282 284 283 281 277 270 262 263 274 281 280 286 294 289 279 281 293 301 314 324 332 337 338 338 337 332 327 323 318 308 291 273 260 256 259 252 239 238 236 232 233 239 239 235 242 254 256 256 256 255 256 256 255 256 256 254 252 251 251 249 246 244 245 248 250 251 256 260
269 270 272 276 278 278 278 281 282 280 275 265 257 259 267 271 279 291 294 286 283 293 304 312 326 336 337 337 339 339 337 333 326 317 307 295 277 265 259 265 278 263 242 232 235 237 240 248 254 250 248 250 249 250 251 252 253 252 252 252 253 255 255 254 255 256 254 251 248 250 252 254 258 261
265 268 270 273 274 273 273 276 278 277 269 258 252 254 257 263 276 283 278 271 275 286 299 311 325 333 335 335 337 337 333 329 324 303 296 298 286 277 260 92 91 211 182 144 148 143 165 234 257 253 244 242 244 250 257 260 260 257 254 254 256 261 265 266 268 271 271 267 262 260 261 262 263 265
263 266 268 270 270 270 271 273 274 272 262 251 247 246 247 254 262 261 254 254 260 268 282 298 310 319 325 327 328 329 326 321 318 303 297 290 209 180 149 113 106 128 129 109 101 100 100 106 109 100 87 80 80 79 78 64 17 3 358 343 319 306 299 293 292 293 295 298 290 281 280 280 277 275
264 266 267 267 267 268 271 271 273 271 260 247 242 238 236 241 244 244 246 248 249 253 266 281 290 293 295 301 308 313 315 316 313 302 293 249 159 158 159 138 119 122 121 109 102 100 102 103 101 95 86 80 80 81 80 75 67 64 65 64 64 63 57 50 36 18 17 26 24 10 3 358 350 341
264 266 268 267 265 267 269 268 271 270 258 247 242 237 235 236 235 237 242 247 254 263 269 275 277 270 264 277 292 295 295 303 312 310 301 247 165 153 138 125 125 130 127 114 102 97 101 101 96 91 86 80 79 79 74 68 63 63 66 68 69 69 70 71 70 66 62 61 61 58 54 52 50 50
261 264 265 263 262 263 263 262 264 263 254 247 242 238 238 238 236 236 241 250 261 269 272 275 278 273 268 278 286 281 277 287 302 304 295 225 169 147 116 101 107 119 123 114 98 89 94 97 90 85 82 78 76 73 69 66 64 65 67 68 70 71 73 74 74 73 71 68 69 70 69 69 67 64
257 260 260 258 257 257 257 254 252 249 241 236 234 234 236 236 234 233 238 247 257 265 273 277 280 279 280 287 284 267 257 270 283 289 282 211 176 151 119 107 106 109 112 107 94 83 88 94 89 83 79 77 76 73 72 72 72 72 72 72 73 74 74 75 74 72 71 70 68 68 68 67 66 65
254 256 255 254 253 253 252 247 235 224 222 227 228 224 221 220 226 232 235 243 251 258 265 271 273 274 280 293 289 259 253 274 281 288 284 221 195 157 111 105 109 109 110 105 95 84 85 90 88 83 79 79 79 77 76 76 75 74 74 73 73 74 73 73 73 72 71 71 69 69 68 67 66 66
251 251 250 249 250 251 248 238 222 214 215 213 203 200 201 204 218 230 236 243 251 256 257 261 267 270 273 281 283 271 275 283 286 295 285 197 180 143 113 113 119 120 116 108 97 88 85 90 89 85 82 81 80 80 79 78 76 74 73 72 72 72 71 71 71 71 71 71 71 71 71 70 69 68
250 250 247 245 247 247 239 226 216 213 210 199 188 189 194 201 215 229 237 242 246 245 244 251 261 261 263 268 269 267 273 285 295 283 171 151 142 127 122 126 128 122 117 109 100 90 87 92 90 87 86 85 84 82 81 80 79 77 74 73 72 71 72 72 72 71 70 70 69 70 70 70 70 71
251 251 248 245 245 240 230 221 216 212 206 195 187 187 189 192 197 194 192 197 198 213 216 224 239 241 246 251 236 232 280 358 58 135 136 130 124 120 120 124 123 117 116 113 106 100 99 98 94 90 90 90 87 84 82 81 80 79 77 76 75 74 74 73 72 71 69 68 68 68 69 70 71 73
254 253 250 246 242 235 226 221 216 211 206 197 189 184 176 171 167 155 151 155 156 170 180 181 191 183 166 145 119 102 99 113 127 130 125 122 122 119 115 116 115 111 116 121 117 114 111 104 101 99 94 91 87 83 82 81 80 80 78 77 77 77 77 76 74 73 70 69 68 67 68 70 71 72
256 253 250 246 240 232 224 217 212 211 206 197 188 177 163 157 151 142 138 135 131 131 126 124 123 115 109 110 109 113 127 136 139 133 126 127 126 120 113 108 106 105 113 121 119 116 116 113 108 105 98 92 88 84 82 82 81 80 79 77 76 76 78 78 77 75 73 71 69 68 69 72 73 73
253 252 252 248 239 231 223 214 210 209 202 194 186 174 161 153 144 139 141 136 128 122 119 117 113 108 113 119 122 132 139 142 145 139 135 139 134 123 116 116 112 108 116 125 122 117 121 122 114 108 100 92 86 85 86 86 85 85 83 80 79 78 78 78 77 75 74 72 70 69 69 72 74 74
250 252 252 248 241 234 225 215 210 207 201 193 184 173 162 152 145 145 144 137 131 128 124 123 118 115 121 128 132 139 143 145 150 146 141 145 139 128 124 126 124 115 125 137 132 126 129 131 121 114 106 94 86 87 90 91 92 94 93 90 86 83 81 79 77 75 72 71 70 69 67 68 70 71
250 253 252 247 241 235 228 221 214 205 198 189 179 173 168 158 149 147 142 135 132 128 122 119 117 114 115 119 124 128 130 129 135 138 138 142 140 134 134 137 133 128 143 152 144 137 140 142 133 125 118 111 104 95 92 94 96 97 100 99 95 90 87 84 81 77 74 72 71 70 68 67 67 68
248 254 254 248 241 234 227 221 211 200 195 188 179 176 173 162 150 144 137 131 127 121 116 113 111 109 108 108 108 108 107 106 109 115 119 123 128 133 137 139 133 130 144 158 154 147 149 148 139 127 115 110 110 102 94 94 96 98 102 103 101 96 91 88 86 82 78 75 73 71 70 68 67 67
245 248 248 244 238 231 225 219 209 199 192 186 180 174 162 150 145 140 133 127 121 114 111 108 106 104 103 102 101 100 100 100 101 103 105 107 110 114 119 125 129 132 147 162 162 159 153 144 140 135 124 117 115 106 94 88 93 103 106 103 102 99 94 92 90 85 81 78 75 73 70 68 67 66
244 243 241 238 231 222 214 210 206 199 190 180 172 164 152 144 142 136 128 122 116 110 107 105 102 100 101 101 100 100 100 100 99 99 98 99 101 100 98 101 108 115 134 156 168 176 163 147 146 145 135 127 121 109 95 90 97 105 105 102 102 100 94 91 88 84 82 80 78 75 72 70 69 68
237 240 247 247 232 209 196 191 195 198 189 174 162 154 148 143 139 131 124 120 116 111 108 105 103 103 105 105 104 104 104 102 101 99 97 95 94 95 95 95 96 98 107 124 147 177 172 153 148 147 140 133 126 117 110 105 99 99 103 105 102 98 93 89 87 87 84 80 79 77 75 73 71 68
136 107 91 108 154 172 173 161 127 100 154 154 148 146 144 140 135 128 124 123 121 116 113 113 112 112 112 111 109 109 108 105 103 101 99 98 96 96 98 99 98 99 100 101 113 141 157 151 146 144 140 134 129 125 123 119 108 103 106 105 96 88 85 83 85 87 84 79 78 78 76 74 69 61
96 96 92 94 95 98 112 119 107 87 66 64 82 103 119 127 129 128 127 129 127 123 122 123 122 121 119 117 116 114 110 106 104 101 99 100 100 102 105 104 100 100 102 103 107 118 130 138 142 139 131 124 120 120 121 118 112 107 107 106 101 92 83 81 82 83 80 78 80 79 77 73 64 53
103 103 100 98 95 92 90 94 99 100 89 72 65 66 71 89 111 122 127 130 130 130 131 130 128 127 126 124 121 118 112 108 107 104 100 101 103 106 110 107 100 98 103 107 110 116 123 129 133 130 123 117 113 112 111 108 105 101 96 95 99 98 93 88 85 83 80 81 84 84 80 72 60 50
107 107 106 103 100 99 100 98 97 99 101 100 99 98 91 85 98 114 122 125 127 131 134 133 132 132 132 128 125 121 114 110 109 106 102 103 108 113 114 107 100 100 103 106 110 114 117 118 118 116 114 113 112 112 108 102 100 98 93 90 93 95 93 91 92 92 87 83 84 85 81 69 56 48
102 100 98 99 99 100 100 101 103 104 105 107 110 115 117 117 118 120 121 122 124 128 134 136 136 136 132 128 126 122 114 111 110 107 105 108 112 115 113 107 104 107 107 106 109 112 112 111 110 109 109 110 111 112 109 105 102 102 101 101 101 99 95 92 93 93 84 79 83 87 82 69 52 42
96 93 90 91 97 102 102 101 102 105 110 115 119 123 128 133 131 126 123 123 124 128 133 137 139 138 133 128 125 122 117 114 111 107 107 110 112 112 110 106 106 110 112 111 113 115 115 115 113 111 110 108 105 103 105 110 112 111 111 109 106 104 104 99 97 97 89 83 88 93 90 80 59 41
90 91 91 88 90 96 100 101 104 108 113 118 123 127 132 134 134 132 129 128 128 129 130 133 135 135 132 128 126 124 121 117 114 110 108 108 109 110 110 108 109 113 117 118 119 122 124 123 120 116 111 105 98 92 93 105 116 118 115 113 112 113 117 115 111 109 101 90 91 97 94 84 66 46
87 88 90 89 88 91 94 99 106 112 117 122 127 131 132 134 135 133 131 131 131 128 127 127 128 128 129 128 127 126 124 121 118 115 113 112 111 111 110 109 111 117 121 124 128 132 133 134 132 127 120 109 100 91 85 96 112 115 109 107 108 107 113 118 114 108 101 89 87 92 90 79 58 34
91 91 92 91 91 92 95 101 107 112 118 123 128 130 130 131 132 132 132 132 129 125 123 123 123 124 128 130 129 128 127 125 123 120 118 118 117 116 113 111 112 116 119 123 133 142 147 152 156 149 137 124 113 105 97 96 100 99 92 91 91 84 79 73 58 44 35 27 33 78 99 93 55 27
98 98 98 98 99 101 103 107 112 114 118 123 125 126 128 129 130 131 132 130 126 123 121 120 120 123 127 131 131 129 128 127 126 124 123 123 121 119 117 115 115 116 116 117 123 130 136 140 149 155 150 138 127 131 123 104 91 88 87 86 82 74 64 56 46 30 11 350 332 325 283 133 42 23
104 105 104 104 106 108 110 111 113 114 116 119 122 124 126 129 131 132 130 127 124 122 120 117 117 120 124 128 131 130 129 128 127 126 126 126 124 122 122 120 120 122 121 120 119 119 119 116 114 128 143 141 140 145 136 118 102 98 96 87 77 70 60 52 42 27 11 355 342 337 332 223 43 26
108 109 109 110 110 111 110 110 110 111 113 116 120 123 127 130 131 129 127 125 123 120 118 116 116 118 120 125 128 129 128 128 128 128 128 127 125 126 127 126 128 131 129 124 122 121 120 117 114 118 130 137 141 139 128 116 107 100 92 82 72 67 62 52 41 35 26 10 359 8 30 44 33 18
112 111 111 111 110 110 109 108 107 108 111 115 119 121 123 125 125 124 124 124 122 120 119 119 119 119 119 120 123 123 122 122 123 124 127 127 127 129 131 131 133 136 133 128 125 125 125 123 120 120 128 137 139 132 120 112 106 95 88 84 75 69 69 65 57 56 53 43 37 39 37 32 21 8
114 113 112 111 108 106 105 105 105 107 109 112 116 118 119 119 119 120 121 122 122 124 125 126 125 122 119 117 115 114 114 115 114 114 117 121 126 131 136 137 137 139 137 132 129 128 128 126 122 122 133 147 149 138 117 111 112 103 95 89 82 77 79 73 62 59 54 46 44 44 37 25 11 359
115 113 110 108 106 104 102 101 101 103 106 110 114 117 119 119 119 119 121 124 127 129 130 130 128 124 120 118 115 112 110 108 107 106 106 108 115 125 133 138 140 142 141 138 135 133 130 126 123 123 131 146 153 142 123 114 111 103 91 80 72 69 70 72 70 62 50 42 44 47 44 34 17 1
115 113 111 109 107 105 102 100 99 99 102 107 113 118 121 122 122 123 125 128 130 131 131 131 129 127 125 124 120 114 109 104 99 96 94 93 100 112 123 133 139 141 142 142 142 140 135 128 123 122 124 128 132 129 120 114 108 97 85 73 55 42 41 46 57 56 47 44 44 41 34 28 20 11
116 115 114 113 111 109 107 104 101 99 99 101 107 116 124 126 125 127 128 130 131 133 135 135 133 133 134 131 124 119 115 109 102 98 93 86 87 100 116 135 145 145 145 146 145 142 138 132 128 129 130 130 129 124 117 115 111 100 87 72 51 36 28 28 33 42 46 45 40 29 19 11 4 358